SCP
0 0 0 0 0 0 0 0 0 0 0 0 0 0 0 0 0 0 0 0 0 0 0 0 0 0 0 0 0 0 0 0 0 0 0 0 0 0 0 0 0 0 0 0
0 0 0 0 0 0 0 0 0 0 0 0 0 0 0 -0 0 0 0 0 0 0 0 0 0 0 0 0 0 0 0 0 0 0 0 0 0 0 0 0 0 0 0 0
0 0 0 0 0 0 0 0 0 0 0 0 0 0 0 0 0 0 0 0 0 0 0 0 0 0 0 0 0 0 0 0 0 0 0 0 0 0 0 0 0 0 0 0
0 0 0 0 0 0 0 0 0 0 0 0 0 0 0 0 0 0 0 0 0 0 0 0 0 0 0 0 0 0 0 0 0 0 0 0 0 0 0 0 0 0 0 0
0 0 0 0 0 0 0 0 0 0 0 0 0 0 -0 0 0 0 0 0 0 0 0 0 0 0 0 0 0 0 0 0 0 0 0 0 0 0 0 0 0 0 0 0
0 0 0 0 0 0 0 0 0 0 0 0 0 0 0 0 0 0 0 0 0 0 0 0 0 0 0 0 0 0 0 0 0 0 0 0 0 0 0 0 0 0 0 0
0 0 0 0 0 0 0 0 0 0 0 0 0 0 0 0 0 0 0 0 0 0 0 0 0 0 0 0 0 0 0 0 0 0 0 0 0 0 0 0 0 0 0 0
0 0 0 0 0 0 0 0 0 0 0 0 0 0 0 0 0 0 0 0 0 0 0 0 0 0 0 0 0 -0 -0 -0 -0 -0 0 0 0 0 0 0 0 0 0 0
0 0 0 0 0 0 0 0 0 0 0 0 0 0 0 0 0 0 0 0 0 0 0 0 0 -0 -0 -0 -0 -0 -0 -0 -0 -0 -0 -0 -0 -0 0 0 0 0 0 0
0 0 0 0 0 0 0 0 0 0 0 0 0 0 0 0 0 0 0 0 0 0 0 0 -0 -0 -0 -0 -0 -0 -0 -0 -0 -0 -0 -0 -0 -0 -0 -0 0 0 0 0
0 0 0 0 0 0 0 0 0 0 0 0 0 0 0 0 0 0 -0 -0 0 0 0 0 0 -0 -0 -0 -0 -0 -0 -0 -0 -0 0 0 0 -0 -0 -0 -0 -0 -0 0
0 0 0 0 0 0 0 0 0 0 0 0 0 0 0 0 0 0 0 0 0 0 -0 -0 -0 -0 -0 0 0 0 0 0 0 -0 -0 -0 -0 -0 -0 -0 -0 -0 -0 -0
0 0 0 0 0 0 0 0 0 0 0 0 0 0 0 0 0 0 -0 -0 0 0 0 -0 0 -0 -0 0 0 0 0 0 0 0 0 0 0 0 0 0 0 0 0 0
0 0 0 0 0 0 0 0 0 0 0 0 0 0 0 0 0 -0 0 0 0 0 0 0 0 -0 -0 -0 -0 -0 -0 -0 -0 -0 -0 0 0 0 0 0 0 0 0 0
0 0 0 0 0 0 0 0 0 0 0 0 0 0 0 0 0 0 0 0 0 0 0 0 0 0 0 -0 -0 -0 -0 -0 -0 -0 -0 -0 0 0 0 0 0 0 0 0
0 0 0 0 0 0 0 0 0 0 0 0 0 0 0 0 0 0 0 0 0 0 0 0 0 0 0 0 0 0 -0 0 0 0 0 0 0 0 0 0 0 0 0 0
0 0 0 0 0 0 0 0 0 0 0 0 0 0 0 0 0 0 0 0 0 0 0 0 0 0 0 0 0 0 0 0 0 0 0 0 0 0 0 0 0 0 0 0
0 0 0 0 0 0 0 0 0 0 0 0 0 0 0 0 0 0 0 0 0 0 0 0 0 0 0 0 0 0 0 0 0 0 0 0 0 0 0 0 0 0 0 0
0 0 0 0 0 0 0 0 0 0 0 0 0 0 0 0 0 0 0 0 0 0 0 0 0 0 0 0 0 0 0 0 0 0 0 0 0 0 0 0 0 0 0 0
0 0 0 0 0 0 0 0 0 0 0 0 0 0 0 0 0 0 0 0 0 0 0 0 0 0 0 0 0 0 -0 0 0 0 0 0 0 0 0 0 0 0 0 0
0 0 0 0 0 0 0 0 0 0 0 0 0 0 0 0 0 0 0 0 0 0 0 0 0 0 0 0 0 0 0 0 0 0 0 0 0 0 0 0 0 0 0 0
0 0 0 0 0 0 0 0 0 0 0 0 0 0 0 0 0 0 0 0 0 0 0 0 0 0 0 0 0 0 0 0 0 0 0 0 0 0 0 0 0 0 0 0
0 0 0 0 0 0 0 0 0 0 0 0 0 0 0 0 0 0 0 0 0 0 0 0 0 0 0 0 0 0 0 0 0 0 0 0 0 0 0 0 0 0 0 0
0 0 0 0 0 0 0 0 0 0 0 0 0 0 0 0 0 0 0 0 0 0 0 0 0 0 0 0 0 0 0 0 0 0 0 0 0 0 0 0 0 0 0 0
0 0 0 0 0 0 0 0 0 0 0 0 0 0 0 0 0 0 0 0 0 0 0 0 0 0 0 0 0 0 0 0 0 0 0 0 0 0 0 0 0 0 0 0
0 0 0 0 0 0 0 0 0 0 0 0 0 0 0 0 0 0 0 0 0 0 0 0 0 0 0 0 0 0 0 0 0 0 0 0 0 0 0 0 0 0 0 0
Wind_Speed_500mb
12 7 13 23 20 12 7 9 10 10 16 12 19 13 18 52 46 31 36 73 53 53 44 41 40 36 34 31 25 20 11 9 3 5 2 12 20 25 28 30 35 42 46 50
2 12 22 12 10 12 14 12 11 10 10 6 15 17 32 34 18 5 63 50 49 49 48 48 48 47 51 51 48 37 29 21 17 13 12 7 2 5 10 17 24 28 33 42
14 12 17 14 8 14 8 9 7 12 7 11 10 13 14 15 45 61 55 55 49 48 50 48 49 51 49 51 52 49 44 38 31 22 14 11 7 4 6 9 14 20 24 29
13 18 18 11 11 14 8 14 9 7 5 6 6 9 16 5 25 28 36 50 48 46 47 47 48 51 53 52 48 47 45 42 40 35 30 27 25 23 21 23 24 23 22 20
12 5 3 6 11 13 12 3 5 5 5 4 11 3 14 16 11 13 23 43 46 45 42 43 44 44 42 39 39 37 35 34 33 31 30 28 27 26 25 23 23 23 23 28
12 4 6 12 2 5 9 5 6 4 6 1 11 11 10 7 15 14 24 42 42 39 39 38 36 35 38 37 35 35 32 31 30 30 29 31 29 27 26 27 29 31 28 24
6 9 4 8 3 6 7 9 6 7 2 9 6 4 12 11 13 34 35 44 41 34 34 33 35 37 38 41 41 38 34 31 28 26 27 28 30 31 32 35 39 42 42 37
5 10 13 9 12 13 12 13 8 10 6 9 15 9 6 20 48 49 51 45 35 31 26 28 29 31 33 32 33 35 39 39 37 34 29 24 25 27 27 29 34 40 44 47
9 10 3 8 5 9 8 8 5 3 4 6 8 5 11 20 23 32 36 35 29 23 17 18 19 19 20 24 28 32 35 38 39 42 42 43 34 28 28 27 30 35 40 44
3 5 7 4 6 10 3 4 2 4 2 7 7 7 8 17 19 16 20 24 15 8 6 10 16 18 18 21 26 30 34 38 41 43 45 45 45 50 49 43 40 41 42 44
7 8 9 8 9 7 4 1 3 6 8 8 4 9 3 24 18 16 20 17 10 2 3 10 13 15 17 23 33 35 38 42 49 54 55 55 56 58 59 58 58 57 55 53
0 7 9 16 9 3 9 7 10 7 7 5 1 18 17 23 27 23 18 20 12 8 4 8 17 17 22 28 39 44 45 49 54 58 59 62 61 62 68 70 70 70 71 69
11 5 4 16 9 6 10 4 9 9 5 11 9 19 14 29 18 8 13 20 18 10 2 9 15 18 25 34 46 47 51 57 63 65 70 70 70 73 76 78 79 79 81 81
5 4 11 15 6 5 6 9 11 10 5 4 22 23 45 28 8 12 14 15 16 8 4 9 11 13 23 37 42 45 49 54 56 60 71 75 77 87 87 86 84 85 88 91
6 10 8 6 8 5 10 24 7 13 26 14 41 31 36 19 2 21 23 16 8 9 14 14 15 21 29 32 33 41 53 55 56 62 70 74 78 94 94 91 92 96 99 100
7 4 5 8 5 10 21 30 20 29 37 27 32 45 13 4 25 23 17 8 12 16 9 8 25 28 32 37 42 43 41 39 50 60 67 74 94 96 96 100 103 107 110 112
9 9 6 11 6 8 17 24 30 18 10 9 16 22 4 10 16 15 5 14 20 5 19 29 34 33 28 32 39 49 61 66 69 73 79 86 90 95 93 91 95 100 102 108
12 12 6 6 8 5 11 6 9 13 10 11 5 7 15 17 16 4 10 21 17 21 28 35 41 46 49 53 60 67 68 69 78 88 93 91 88 90 93 96 98 103 107 110
7 10 3 8 9 13 17 7 9 11 12 8 12 5 17 13 11 18 28 38 28 25 27 42 50 53 55 63 69 71 80 87 89 94 94 86 91 94 101 108 109 111 115 121
10 7 10 6 11 18 13 7 15 11 12 15 17 18 17 5 2 13 43 36 26 29 39 46 53 57 61 65 71 83 91 92 90 87 91 97 99 100 107 106 104 99 94 102
7 2 29 18 11 15 14 16 18 10 13 25 28 26 17 11 30 43 36 29 38 41 45 51 56 59 60 68 79 87 91 92 91 94 97 99 99 99 97 93 86 84 83 85
14 13 8 7 8 14 20 14 13 10 10 22 32 26 30 41 45 39 37 42 44 52 54 56 59 57 63 74 82 87 88 89 93 95 97 98 97 90 84 79 79 78 79 84
3 14 11 21 13 12 44 22 27 25 21 25 34 43 37 38 39 42 43 40 44 49 52 53 54 61 69 74 77 82 83 87 91 94 95 94 85 78 75 75 76 77 77 82
9 12 8 9 11 23 47 44 35 39 45 50 53 59 51 42 42 43 42 41 48 48 51 51 57 67 73 72 71 72 77 82 87 91 90 85 82 80 76 75 75 76 79 81
19 13 8 9 19 43 50 59 59 55 48 46 50 53 50 45 42 41 40 43 45 47 48 52 62 68 69 68 68 68 72 78 83 86 86 84 80 78 78 75 75 72 76 74
38 21 12 16 44 30 35 46 46 41 40 44 45 46 45 45 42 42 41 44 44 44 48 57 63 66 65 64 64 65 69 74 79 82 81 80 79 78 78 79 82 69 68 68
Wind_Direction_500mb
194 130 202 213 206 219 266 270 259 266 281 299 280 288 285 275 282 298 315 118 102 86 81 78 77 75 74 79 87 95 120 106 117 141 160 244 257 263 270 269 269 273 273 273
71 222 229 229 235 232 227 244 264 277 280 326 287 297 277 288 287 14 116 97 96 92 84 73 73 71 69 67 69 71 68 67 67 75 86 73 330 280 296 282 280 279 278 278
190 224 201 190 260 290 279 240 238 254 297 279 304 301 291 54 77 83 88 101 93 86 84 77 72 68 66 62 60 59 59 58 55 50 40 41 46 19 288 279 275 277 280 283
251 250 236 257 253 201 254 248 222 245 83 236 60 277 291 55 84 73 84 93 93 87 82 77 70 68 62 58 55 52 50 50 50 48 46 39 31 20 2 334 325 313 297 291
252 198 154 181 220 151 228 99 166 195 194 45 287 108 268 118 87 99 91 91 89 85 81 70 60 56 54 49 43 39 35 34 34 29 25 22 23 19 8 355 342 328 314 298
241 263 219 209 42 133 146 34 310 95 118 71 267 168 287 162 172 125 103 96 88 81 77 68 58 45 37 32 28 27 23 19 11 6 3 360 357 352 343 338 335 337 334 315
308 235 201 154 95 36 85 75 314 351 17 222 189 56 246 10 86 125 119 103 96 85 69 54 37 28 22 17 12 13 16 20 16 8 1 352 346 343 341 340 336 330 326 323
219 314 168 183 184 185 171 173 170 222 212 230 11 253 323 104 98 104 104 105 98 84 65 50 37 25 20 21 19 17 17 16 17 16 15 11 2 352 350 347 339 333 328 324
207 252 194 161 182 153 177 174 191 169 50 60 209 266 105 110 104 111 110 105 100 92 62 37 31 34 33 30 28 25 21 19 16 13 10 9 5 356 358 354 338 327 322 319
171 283 291 140 37 7 108 152 47 14 296 257 262 238 216 163 142 125 116 120 121 107 75 40 18 18 24 23 24 18 15 10 6 2 359 356 351 348 349 347 339 331 324 318
125 131 261 116 195 141 38 200 194 167 167 196 254 249 197 143 149 142 163 177 182 157 318 334 349 349 1 5 1 357 356 358 355 352 348 345 342 339 336 333 331 328 326 324
302 140 215 231 262 142 180 213 171 171 238 243 228 252 152 144 153 161 194 190 189 171 193 308 323 329 335 335 337 337 335 334 336 339 337 335 334 333 330 326 323 322 320 319
174 182 347 337 10 32 75 99 105 92 80 218 220 252 120 131 149 143 182 174 159 156 40 319 317 303 322 331 327 325 327 327 327 327 328 326 325 324 323 320 317 315 314 312
89 140 175 224 163 128 281 174 114 123 186 236 251 290 284 304 354 144 126 126 131 111 29 350 334 334 326 322 319 319 317 315 312 314 317 317 319 320 318 315 311 308 307 306
124 190 205 259 124 163 221 258 174 209 241 207 272 272 277 294 211 153 134 107 75 338 326 306 316 315 311 311 318 318 311 306 310 308 308 307 306 309 310 308 307 306 305 303
355 209 83 307 264 227 265 265 253 239 249 247 256 266 276 177 131 119 99 52 338 328 348 320 315 319 319 314 313 311 312 302 299 299 298 298 302 304 304 304 303 301 299 298
137 123 87 267 28 41 298 248 233 238 205 181 223 244 199 197 152 136 74 343 324 278 315 323 329 324 317 309 309 309 310 308 305 302 301 302 303 304 303 300 297 295 295 295
137 118 99 221 30 284 243 306 224 212 227 183 106 202 198 204 181 184 343 330 299 297 311 316 317 313 313 315 314 312 312 312 311 310 310 309 306 299 296 292 288 286 284 282
152 139 135 164 203 309 291 248 181 165 272 193 179 215 192 182 304 290 302 318 285 294 305 309 310 309 309 311 314 317 317 318 317 317 315 310 306 303 299 295 293 289 285 282
169 149 157 109 177 215 237 240 142 101 273 225 179 176 162 171 300 276 315 304 270 285 298 304 307 309 311 315 317 318 320 321 322 319 315 312 311 308 307 306 305 303 298 292
110 61 209 213 229 279 241 190 153 103 257 175 189 187 201 196 251 286 291 268 279 292 298 300 308 312 315 316 318 319 320 322 320 318 316 315 314 314 313 312 311 310 308 304
157 155 194 172 222 273 162 132 176 209 187 209 191 221 250 276 281 273 265 267 281 293 298 304 309 312 315 318 319 319 320 319 318 318 319 320 319 316 314 313 312 311 310 307
179 193 183 188 203 213 180 209 229 250 237 228 244 279 275 284 274 269 266 274 289 293 299 304 307 312 317 319 320 319 320 321 320 321 323 321 319 321 321 318 316 314 313 309
275 187 216 87 229 232 251 259 253 254 266 280 283 287 287 276 273 268 271 285 294 295 300 305 310 313 315 318 319 320 323 323 322 324 323 326 328 327 325 322 319 314 310 303
212 162 202 262 262 261 269 263 269 273 275 276 274 276 274 275 278 275 278 293 293 297 299 304 309 312 315 316 319 324 325 326 326 324 329 332 330 328 326 325 321 312 307 299
223 216 209 234 243 223 243 261 266 265 266 274 270 264 263 267 268 275 286 289 291 293 298 305 311 312 314 315 320 327 328 330 329 328 332 333 331 330 327 325 324 326 314 303
Wind_Speed_850mb
12 7 13 23 20 12 7 9 10 10 16 12 19 13 18 52 46 31 36 73 53 53 44 41 40 36 34 31 25 20 11 9 3 5 2 12 20 25 28 30 35 42 46 50
2 12 22 12 10 12 14 12 11 10 10 6 15 17 32 34 18 5 63 50 49 49 48 48 48 47 51 51 48 37 29 21 17 13 12 7 2 5 10 17 24 28 33 42
14 12 17 14 8 14 8 9 7 12 7 11 10 13 14 15 45 61 55 55 49 48 50 48 49 51 49 51 52 49 44 38 31 22 14 11 7 4 6 9 14 20 24 29
13 18 18 11 11 14 8 14 9 7 5 6 6 9 16 5 25 28 36 50 48 46 47 47 48 51 53 52 48 47 45 42 40 35 30 27 25 23 21 23 24 23 22 20
12 5 3 6 11 13 12 3 5 5 5 4 11 3 14 16 11 13 23 43 46 45 42 43 44 44 42 39 39 37 35 34 33 31 30 28 27 26 25 23 23 23 23 28
12 4 6 12 2 5 9 5 6 4 6 1 11 11 10 7 15 14 24 42 42 39 39 38 36 35 38 37 35 35 32 31 30 30 29 31 29 27 26 27 29 31 28 24
6 9 4 8 3 6 7 9 6 7 2 9 6 4 12 11 13 34 35 44 41 34 34 33 35 37 38 41 41 38 34 31 28 26 27 28 30 31 32 35 39 42 42 37
5 10 13 9 12 13 12 13 8 10 6 9 15 9 6 20 48 49 51 45 35 31 26 28 29 31 33 32 33 35 39 39 37 34 29 24 25 27 27 29 34 40 44 47
9 10 3 8 5 9 8 8 5 3 4 6 8 5 11 20 23 32 36 35 29 23 17 18 19 19 20 24 28 32 35 38 39 42 42 43 34 28 28 27 30 35 40 44
3 5 7 4 6 10 3 4 2 4 2 7 7 7 8 17 19 16 20 24 15 8 6 10 16 18 18 21 26 30 34 38 41 43 45 45 45 50 49 43 40 41 42 44
7 8 9 8 9 7 4 1 3 6 8 8 4 9 3 24 18 16 20 17 10 2 3 10 13 15 17 23 33 35 38 42 49 54 55 55 56 58 59 58 58 57 55 53
0 7 9 16 9 3 9 7 10 7 7 5 1 18 17 23 27 23 18 20 12 8 4 8 17 17 22 28 39 44 45 49 54 58 59 62 61 62 68 70 70 70 71 69
11 5 4 16 9 6 10 4 9 9 5 11 9 19 14 29 18 8 13 20 18 10 2 9 15 18 25 34 46 47 51 57 63 65 70 70 70 73 76 78 79 79 81 81
5 4 11 15 6 5 6 9 11 10 5 4 22 23 45 28 8 12 14 15 16 8 4 9 11 13 23 37 42 45 49 54 56 60 71 75 77 87 87 86 84 85 88 91
6 10 8 6 8 5 10 24 7 13 26 14 41 31 36 19 2 21 23 16 8 9 14 14 15 21 29 32 33 41 53 55 56 62 70 74 78 94 94 91 92 96 99 100
7 4 5 8 5 10 21 30 20 29 37 27 32 45 13 4 25 23 17 8 12 16 9 8 25 28 32 37 42 43 41 39 50 60 67 74 94 96 96 100 103 107 110 112
9 9 6 11 6 8 17 24 30 18 10 9 16 22 4 10 16 15 5 14 20 5 19 29 34 33 28 32 39 49 61 66 69 73 79 86 90 95 93 91 95 100 102 108
12 12 6 6 8 5 11 6 9 13 10 11 5 7 15 17 16 4 10 21 17 21 28 35 41 46 49 53 60 67 68 69 78 88 93 91 88 90 93 96 98 103 107 110
7 10 3 8 9 13 17 7 9 11 12 8 12 5 17 13 11 18 28 38 28 25 27 42 50 53 55 63 69 71 80 87 89 94 94 86 91 94 101 108 109 111 115 121
10 7 10 6 11 18 13 7 15 11 12 15 17 18 17 5 2 13 43 36 26 29 39 46 53 57 61 65 71 83 91 92 90 87 91 97 99 100 107 106 104 99 94 102
7 2 29 18 11 15 14 16 18 10 13 25 28 26 17 11 30 43 36 29 38 41 45 51 56 59 60 68 79 87 91 92 91 94 97 99 99 99 97 93 86 84 83 85
14 13 8 7 8 14 20 14 13 10 10 22 32 26 30 41 45 39 37 42 44 52 54 56 59 57 63 74 82 87 88 89 93 95 97 98 97 90 84 79 79 78 79 84
3 14 11 21 13 12 44 22 27 25 21 25 34 43 37 38 39 42 43 40 44 49 52 53 54 61 69 74 77 82 83 87 91 94 95 94 85 78 75 75 76 77 77 82
9 12 8 9 11 23 47 44 35 39 45 50 53 59 51 42 42 43 42 41 48 48 51 51 57 67 73 72 71 72 77 82 87 91 90 85 82 80 76 75 75 76 79 81
19 13 8 9 19 43 50 59 59 55 48 46 50 53 50 45 42 41 40 43 45 47 48 52 62 68 69 68 68 68 72 78 83 86 86 84 80 78 78 75 75 72 76 74
38 21 12 16 44 30 35 46 46 41 40 44 45 46 45 45 42 42 41 44 44 44 48 57 63 66 65 64 64 65 69 74 79 82 81 80 79 78 78 79 82 69 68 68
Wind_Direction_850mb
194 130 202 213 206 219 266 270 259 266 281 299 280 288 285 275 282 298 315 118 102 86 81 78 77 75 74 79 87 95 120 106 117 141 160 244 257 263 270 269 269 273 273 273
71 222 229 229 235 232 227 244 264 277 280 326 287 297 277 288 287 14 116 97 96 92 84 73 73 71 69 67 69 71 68 67 67 75 86 73 330 280 296 282 280 279 278 278
190 224 201 190 260 290 279 240 238 254 297 279 304 301 291 54 77 83 88 101 93 86 84 77 72 68 66 62 60 59 59 58 55 50 40 41 46 19 288 279 275 277 280 283
251 250 236 257 253 201 254 248 222 245 83 236 60 277 291 55 84 73 84 93 93 87 82 77 70 68 62 58 55 52 50 50 50 48 46 39 31 20 2 334 325 313 297 291
252 198 154 181 220 151 228 99 166 195 194 45 287 108 268 118 87 99 91 91 89 85 81 70 60 56 54 49 43 39 35 34 34 29 25 22 23 19 8 355 342 328 314 298
241 263 219 209 42 133 146 34 310 95 118 71 267 168 287 162 172 125 103 96 88 81 77 68 58 45 37 32 28 27 23 19 11 6 3 360 357 352 343 338 335 337 334 315
308 235 201 154 95 36 85 75 314 351 17 222 189 56 246 10 86 125 119 103 96 85 69 54 37 28 22 17 12 13 16 20 16 8 1 352 346 343 341 340 336 330 326 323
219 314 168 183 184 185 171 173 170 222 212 230 11 253 323 104 98 104 104 105 98 84 65 50 37 25 20 21 19 17 17 16 17 16 15 11 2 352 350 347 339 333 328 324
207 252 194 161 182 153 177 174 191 169 50 60 209 266 105 110 104 111 110 105 100 92 62 37 31 34 33 30 28 25 21 19 16 13 10 9 5 356 358 354 338 327 322 319
171 283 291 140 37 7 108 152 47 14 296 257 262 238 216 163 142 125 116 120 121 107 75 40 18 18 24 23 24 18 15 10 6 2 359 356 351 348 349 347 339 331 324 318
125 131 261 116 195 141 38 200 194 167 167 196 254 249 197 143 149 142 163 177 182 157 318 334 349 349 1 5 1 357 356 358 355 352 348 345 342 339 336 333 331 328 326 324
302 140 215 231 262 142 180 213 171 171 238 243 228 252 152 144 153 161 194 190 189 171 193 308 323 329 335 335 337 337 335 334 336 339 337 335 334 333 330 326 323 322 320 319
174 182 347 337 10 32 75 99 105 92 80 218 220 252 120 131 149 143 182 174 159 156 40 319 317 303 322 331 327 325 327 327 327 327 328 326 325 324 323 320 317 315 314 312
89 140 175 224 163 128 281 174 114 123 186 236 251 290 284 304 354 144 126 126 131 111 29 350 334 334 326 322 319 319 317 315 312 314 317 317 319 320 318 315 311 308 307 306
124 190 205 259 124 163 221 258 174 209 241 207 272 272 277 294 211 153 134 107 75 338 326 306 316 315 311 311 318 318 311 306 310 308 308 307 306 309 310 308 307 306 305 303
355 209 83 307 264 227 265 265 253 239 249 247 256 266 276 177 131 119 99 52 338 328 348 320 315 319 319 314 313 311 312 302 299 299 298 298 302 304 304 304 303 301 299 298
137 123 87 267 28 41 298 248 233 238 205 181 223 244 199 197 152 136 74 343 324 278 315 323 329 324 317 309 309 309 310 308 305 302 301 302 303 304 303 300 297 295 295 295
137 118 99 221 30 284 243 306 224 212 227 183 106 202 198 204 181 184 343 330 299 297 311 316 317 313 313 315 314 312 312 312 311 310 310 309 306 299 296 292 288 286 284 282
152 139 135 164 203 309 291 248 181 165 272 193 179 215 192 182 304 290 302 318 285 294 305 309 310 309 309 311 314 317 317 318 317 317 315 310 306 303 299 295 293 289 285 282
169 149 157 109 177 215 237 240 142 101 273 225 179 176 162 171 300 276 315 304 270 285 298 304 307 309 311 315 317 318 320 321 322 319 315 312 311 308 307 306 305 303 298 292
110 61 209 213 229 279 241 190 153 103 257 175 189 187 201 196 251 286 291 268 279 292 298 300 308 312 315 316 318 319 320 322 320 318 316 315 314 314 313 312 311 310 308 304
157 155 194 172 222 273 162 132 176 209 187 209 191 221 250 276 281 273 265 267 281 293 298 304 309 312 315 318 319 319 320 319 318 318 319 320 319 316 314 313 312 311 310 307
179 193 183 188 203 213 180 209 229 250 237 228 244 279 275 284 274 269 266 274 289 293 299 304 307 312 317 319 320 319 320 321 320 321 323 321 319 321 321 318 316 314 313 309
275 187 216 87 229 232 251 259 253 254 266 280 283 287 287 276 273 268 271 285 294 295 300 305 310 313 315 318 319 320 323 323 322 324 323 326 328 327 325 322 319 314 310 303
212 162 202 262 262 261 269 263 269 273 275 276 274 276 274 275 278 275 278 293 293 297 299 304 309 312 315 316 319 324 325 326 326 324 329 332 330 328 326 325 321 312 307 299
223 216 209 234 243 223 243 261 266 265 266 274 270 264 263 267 268 275 286 289 291 293 298 305 311 312 314 315 320 327 328 330 329 328 332 333 331 330 327 325 324 326 314 303